Regional Weather Roundup
Issued by NWS

Home | Current Version | Previous Version | Text Only | Print | Product List | Glossary Off
Versions: 1 2 3 4 5 6 7 8 9 10 11 12 13 14 15 16 17 18 19 20 21 22 23 24 25 26 27 28 29 30 31 32 33 34 35 36 37 38 39 40 41 42 43 44 45 46 47 48 49 50

653
ASUS45 KBOU 241410
RWRCO

WEATHER ROUNDUP FOR COLORADO
NATIONAL WEATHER SERVICE DENVER/BOULDER CO
800 AM MDT TUE APR 24 2018

NOTE: "FAIR" INDICATES FEW OR NO CLOUDS BELOW 12000 FEET WITH NO
SIGNIFICANT WEATHER AND/OR OBSTRUCTIONS TO VISIBILITY.

COZ001>005-013-030-031-241500-
...NORTHWEST COLORADO...

CITY           SKY/WX    TMP DP  RH WIND       PRES   REMARKS
CRAIG          CLOUDY    34  28  79 SW9       30.35R WCI  27
HAYDEN         CLOUDY    33  28  81 W10       30.35R WCI  25
MEEKER         FAIR      36  27  69 NE14      30.33R
RANGELY        FAIR      38  26  60 E29G38    30.33R
RABBIT EARS PA FOG       27  27 100 NE6       30.33R VSB<1/4 WCI  20
STEAMBOAT SPGS CLOUDY    32  29  88 SW5       30.33R WCI  28
WALDEN         CLOUDY    30  21  69 NW10      30.35R WCI  21
$$

COZ006>008-011-241500-
...WEST CENTRAL VALLEYS...

CITY           SKY/WX    TMP DP  RH WIND       PRES   REMARKS
GRAND JUNCTION PTSUNNY   56  30  37 E10       30.17R
MONTROSE       FAIR      51  34  52 NW3       30.22R
EAGLE          FAIR      45  34  65 E6        30.25R
RIFLE          FAIR      44  31  60 NW22G30   30.25R
DELTA          FAIR      55  38  51 E6        30.20R
NUCLA          FAIR      54  32  43 N6        30.22R
$$

COZ017>023-064>068-241500-
...SOUTHWEST COLORADO...

CITY           SKY/WX    TMP DP  RH WIND       PRES   REMARKS
DURANGO        FAIR      42  18  37 CALM      30.19R
CORTEZ         FAIR      46  24  42 E3        30.16R
PAGOSA SPRINGS FAIR      44  14  29 CALM      30.24R
TELLURIDE      FAIR      40  28  63 E3        30.32R
WOLF CREEK PAS PTSUNNY   36  14  41 S6        30.45S
$$

COZ009-010-012-014-032>034-037-058>063-241500-
...CENTRAL COLORADO...

CITY           SKY/WX    TMP DP  RH WIND       PRES   REMARKS
ASPEN          FAIR      41  35  79 SE3       30.25R
BUENA VISTA    FAIR      45  32  59 SE12      30.29R
COPPER MTN     NOT AVBL
BERTHOUD PASS  FAIR      21  12  68 W9        30.36S WCI  11
COTTONWOOD PAS FAIR      43  34  70 CALM      30.33S
GUNNISON       PTSUNNY   44  32  62 NE8       30.28S
GRANBY         CLOUDY    38  33  84 N3        30.28R
KREMMLING      CLOUDY    43  32  65 N12G18    30.29R
LEADVILLE      FOG       31  30  96 CALM      30.31S VSB 3/4
MONARCH PASS   FAIR      30  27  86 NW15      30.50S WCI  19
SALIDA         FAIR      46  37  70 E13G18    30.35F
SUNLIGHT       PTSUNNY   30  27  86 SW7       30.37S WCI  23
WILKERSON PASS FOG      N/A N/A N/A SW7       30.39F VSB 1/2
$$

COZ069>075-241500-
...SAN LUIS VALLEY/SANGRE DE CRISTO MOUNTAINS...

CITY           SKY/WX    TMP DP  RH WIND       PRES   REMARKS
ALAMOSA        FAIR      45  26  47 CALM      30.27R
DEL NORTE      FAIR      41  22  46 W8        30.28S
LA VETA PASS   SNOW      28  28 100 N18G25    30.47S VSB 1/2 WCI  16
SAGUACHE       NOT AVBL
$$

COZ035-036-038>040-241500-
...NORTHERN COLORADO FRONT RANGE...

CITY           SKY/WX    TMP DP  RH WIND       PRES   REMARKS
DENVER INTL AP CLOUDY    33  30  88 NE8       30.41R WCI  26
AURORA         FLURRIES  32  31  99 NE8       30.42R WCI  24
FRONT RANGE AP CLOUDY    34  32  93 N8        30.42R WCI  27
ERIE MUNI ARPT LGT SNOW  34  33  96 CALM      30.48R
BOULDER MUN AP LGT SNOW  34  34 100 S3        30.42R
CENTENNIAL     CLOUDY    31  30  96 N9        30.41R FOG     WCI  23
BROOMFIELD     LGT SNOW  32  32 100 NE3       30.42R VSB 1
FORT COLLINS   LGT RAIN  37  31  78 N6        30.42R
LONGMONT       MIX PCPN  36  34  93 CALM      30.44R
$$

COZ041-046-047-076>085-087-088-241500-
...PIKES PEAK/PALMER DIVIDE AND SOUTHERN FOOTHILLS...

CITY           SKY/WX    TMP DP  RH WIND       PRES   REMARKS
COLO. SPRINGS  CLOUDY    37  27  67 N20G33    30.36R
A. F. ACADEMY  NOT AVBL
SCHRIEVER AFB  NOT AVBL
CHEYENNE MTN   FLURRIES  33  29  88 N18G25    30.29R WCI  21
ELLICOTT       LGT RAIN N/A N/A N/A N25G31    30.33R
FALCON         CLOUDY    32  28  84 N21G29    30.35F WCI  20
FORT CARSON    NOT AVBL
LIMON          LGT SNOW  32  31  96 NW21      30.37R VSB 1   WCI  20
MONUMENT HILL  LGT SNOW  28  27  93 N13       30.40R WCI  18
CANON CITY     LGT RAIN  45  37  76 SE12      30.31S
WALSENBURG     NOT AVBL
TRINIDAD       CLOUDY    39  36  89 N12       30.35R
$$

COZ042>045-048>051-090-091-241500-
...NORTHEAST COLORADO...

CITY           SKY/WX    TMP DP  RH WIND       PRES   REMARKS
GREELEY ARPT   PTSUNNY   37  31  78 N18       30.43R
AKRON          LGT SNOW  32  32 100 N16       30.38R FOG     WCI  21
BURLINGTON     MIX PCPN  35  34  96 NW17      30.35R WCI  25
WRAY           DRIZZLE   37  36  93 N20G25    30.36R
YUMA           LGT RAIN  34  32  93 NW14G24   30.37R WCI  24
STERLING       NOT AVBL
HOLYOKE        LGT RAIN  37  34  87 NW23      30.35R
FORT MORGAN    CLOUDY    36  32  85 N17       30.41R
$$

COZ086-089-092>099-241500-
...SOUTHEAST COLORADO...

CITY           SKY/WX    TMP DP  RH WIND       PRES   REMARKS
PUEBLO         CLOUDY    41  33  73 N24G35    30.33R
LA JUNTA       CLOUDY    43  33  68 N26G35    30.32R
LAMAR          CLOUDY    43  34  70 N25G38    30.27R
SPRINGFIELD      N/A     45  43  93 N14       30.24R
$$




USA.gov is the U.S. government's official web portal to all federal, state and local government web resources and services.